Regional Weather Roundup
Issued by NWS

Home | Current Version | Previous Version | Graphics & Text | Print | Product List | Glossary On
Versions: 1 2 3 4 5 6 7 8 9 10 11 12 13 14 15 16 17 18 19 20 21 22 23 24 25 26 27 28 29 30 31 32 33 34 35 36 37 38 39 40 41 42 43 44 45 46 47 48 49 50
000
ASUS43 KIND 220709
RWRIN

WEATHER ROUNDUP FOR INDIANA
NATIONAL WEATHER SERVICE INDIANAPOLIS IN
300 AM EDT SUN OCT 22 2017

NOTE: "FAIR" INDICATES FEW OR NO CLOUDS BELOW 12,000 FEET WITH NO
SIGNIFICANT WEATHER AND/OR OBSTRUCTIONS TO VISIBILITY.

* - STATION DOES NOT REPORT WEATHER SUCH AS PRECIPITATION OR FOG.

+ - STATION NOT QUALITY CONTROLLED BY THE NATIONAL WEATHER SERVICE.
    USE DATA WITH CAUTION...ESPECIALLY DEWPOINT AND RELATIVE
    HUMIDITY OBSERVATIONS.

INZ001>003-010>013-019-020-220800-
NORTHWEST INDIANA

CITY           SKY/WX    TMP DP  RH WIND       PRES   REMARKS
GARY /AIRPORT/ CLEAR     66  50  55 S9G16     30.03F
KNOX *+        MOCLDY    63  50  63 S13       30.07F
LA PORTE +     PTCLDY    62  50  64 S9        30.07F
MICHIGAN CITY+ PTCLDY    64  50  59 S10G18    30.06F
MONTICELLO +   MOCLDY    64  49  59 S6        30.08F
RENSSELAER +   MOCLDY    63  43  48 S10       30.06F
VALPARAISO     PTCLDY    63  52  67 SE8       30.06F

$$

LMZ046-743>745-220800-
SOUTHERN LAKE MICHIGAN

STATION/POSITION TIME  TEMP    WIND        PRES    WAVE
                       AIR SEA DIR/SP/G            HT
                 (UTC) (F)     (DEG/KT/KT) (MB)    (FT)
BURNS HARBOR     0640   65     180/ 14/ 19 1017.3S
MICHIGAN CITY    0640   65     150/ 14/ 18   N/A
5NW MICH CITY    0700   64 58  180/ 16/ 21   N/A     2

$$

INZ004-005-014>016-021>024-220800-
NORTH CENTRAL INDIANA

CITY           SKY/WX    TMP DP  RH WIND       PRES   REMARKS
GOSHEN         PTCLDY    60  46  59 S6        30.11S
LOGANSPORT +   CLOUDY    59  46  63 S6        30.11S
PERU/GRISSOM   CLOUDY    61  48  62 S9        30.10F
SOUTH BEND     CLEAR     64  50  60 S13       30.09F
WARSAW +       PTCLDY    61  46  59 S3        30.12S

$$

INZ006>009-017-018-025>027-220800-
NORTHEAST INDIANA

CITY           SKY/WX    TMP DP  RH WIND       PRES   REMARKS
AUBURN +       CLOUDY    55  45  67 CALM      30.15S
FORT WAYNE     CLOUDY    60  47  61 S7        30.15R
HUNTINGTON +   CLOUDY    61  46  57 S5        30.13S
KENDALLVILLE + CLOUDY    59  47  65 S6        30.14S

$$

INZ028-029-035-036-043>045-051>053-220800-
WEST CENTRAL INDIANA

CITY           SKY/WX    TMP DP  RH WIND       PRES   REMARKS
CRAWFORDSVL +  CLOUDY    61  50  67 SE7       30.10F
GREENCASTLE +  CLOUDY    59  48  67 S3        30.11F
LAFAYETTE      PTCLDY    60  50  69 CALM      30.08F
TERRE HAUTE    PTCLDY    64  52  64 S8        30.09F

$$

INZ030>032-037>040-046>048-054>057-064-065-220800-
CENTRAL INDIANA

CITY           SKY/WX    TMP DP  RH WIND       PRES   REMARKS
CP ATTERBURY + PTCLDY    55  46  71 SE3       30.15S
FISHERS *+     MOCLDY    59  50  72 S7        30.13F
FRANKFORT +    MOCLDY    64  51  60 S3        30.11F
GREENWOOD *+   CLOUDY    62  50  64 S8        30.15R
INDIANAPOLIS   CLOUDY    59  49  69 SE9       30.13S
-EAGLE CREEK   CLOUDY    60  49  66 SE3       30.12S
KOKOMO +       CLOUDY    61  48  62 S10       30.12F
MARION +       CLOUDY    59  48  67 S8        30.14R
MT COMFORT *+  CLOUDY    59  52  77 S7        30.14S
SHELBYVILLE    CLOUDY    62  47  57 S9        30.14S
ZIONSVILLE +   MOCLDY    60  48  65 S7        30.13F

$$

INZ033-034-041-042-049-050-058-059-220800-
EAST CENTRAL INDIANA

CITY           SKY/WX    TMP DP  RH WIND       PRES   REMARKS
MUNCIE         CLOUDY    62  47  57 S8        30.15R
RICHMOND +     CLEAR     52  46  82 S9        30.18F

$$

INZ060-061-067>069-081>083-085>088-220800-
SOUTHWEST INDIANA

CITY           SKY/WX    TMP DP  RH WIND       PRES   REMARKS
EVANSVILLE     PTCLDY    64  54  69 SE5       30.09F
HUNTINGBURG +  PTCLDY    65  53  65 S7G18     30.12S
WASHINGTON +   CLEAR     62  49  62 S8        30.10S

$$

INZ062-063-066-070>080-084-089>092-220800-
SOUTH CENTRAL AND SOUTHEAST INDIANA

CITY           SKY/WX    TMP DP  RH WIND       PRES   REMARKS
BLOOMINGTON    CLOUDY    59  47  64 S5        30.12S
MADISON *+     PTCLDY    59  48  67 S5        30.19F
NORTH VERNON + PTCLDY    57  46  67 SE6       30.16F
SEYMOUR +      CLOUDY    57  48  72 SE6       30.14F

$$





USA.gov is the U.S. government's official web portal to all federal, state and local government web resources and services.